Location: Bagnara
(41.0500°N, 14.7833°E)
Time: 10:16:33
(UTC+00:00)

NPP - Pass Details

Date: 20 June 2021
Orbit: 826 x 828 km, 98.7° (Epoch: 01 August)

Event Time Altitude Azimuth Distance (km) Brightness Sun altitude
Rises 01:25:44 0° 6° (N) 3,377 7.9 -17.4°
Reaches altitude 10° 01:28:11 10° 0° (N) 2,439 6.9 -17.2°
Maximum altitude 01:33:15 43° 291° (WNW) 1,154 4.3 -16.6°
Enters shadow 01:35:58 24° 235° (SW) 1,632 4.6 -16.3°
